sat.trackr.live / text

‹ back to catalog

SAPPHIRE

NORAD 39088 · 2013-009C

PAYLOAD ACTIVE UNKNOWN

§ Identity

Operator
Country
CA
Launch date
2013-02-25
Launch site
SRILR
Launch vehicle
Mass (kg)
RCS (m²)
0.60

Purposes: military

External: N2YO · Heavens-Above · Gunter

§ Orbital elements

Epoch: 2026-05-25T03:44:29.226048Z

Period
100.33 min
Inclination
98.4257°
Eccentricity
0.0010399
Mean motion
14.35233339 rev/d
Perigee alt
766.9 km
Apogee alt
781.7 km
Semi-major
7,152.4 km
B*
4.6510e-5
RAAN
325.1595°
Arg perigee
322.7140°
Mean anomaly
37.3323°
Rev number
69,327

§ Raw data

SAPPHIRE1 39088U 13009C   26145.15589382  .00000090  00000+0  46510-4 0  99982 39088  98.4257 325.1595 0010399 322.7140  37.3323 14.35233339693270

JSON: /api/v1/satellites/39088 · /tle

For live sub-satellite position, see the globe view (requires WebGL).

§ Visibility from observer

Set your observer location to see the next 7 days of passes ≥ 10°. The values pass through the URL so the page stays shareable.

No JS? Fill the form by hand. The geolocation button needs JavaScript.